Wind_Speed
27 25 24 21 19 14 12 16 28 21 24 20 18 21 18 15 14 13 14 14 13 12 12 13 16 17 18 18 19 20 18 18 18 19 21 22 23 23
29 27 27 22 22 19 19 20 28 21 22 24 25 23 20 17 15 14 14 14 13 13 14 16 17 18 19 21 23 23 22 21 20 21 22 23 24 25
33 29 26 28 20 23 21 24 23 20 19 21 24 20 18 15 12 11 14 16 14 15 15 15 17 20 22 24 25 25 24 24 26 25 24 24 25 25
36 34 32 22 21 25 22 20 20 21 22 24 23 20 16 16 14 16 18 17 16 17 18 18 20 23 24 26 24 23 24 26 26 27 27 28 28 28
39 36 28 29 25 28 23 23 22 22 22 22 21 21 21 19 19 19 19 18 19 21 22 22 23 24 24 25 25 25 28 25 26 27 26 28 30 31
26 28 28 21 26 26 24 23 23 21 20 19 20 22 20 19 19 19 20 21 21 23 23 21 23 23 26 26 26 25 26 27 24 25 27 31 32 32
30 28 24 27 30 26 23 20 20 19 22 19 19 19 19 19 19 19 21 22 20 22 23 20 25 24 24 23 23 26 28 28 27 29 32 33 32 31
28 26 30 32 29 26 26 23 24 18 17 17 18 18 20 21 24 22 22 23 21 21 25 21 24 23 24 24 25 25 27 29 30 30 25 23 26 29
28 32 32 28 26 23 23 21 17 19 19 19 19 21 23 21 21 19 20 20 21 20 24 26 23 25 27 27 29 28 27 26 21 19 26 30 32 31
32 31 27 22 22 23 21 20 19 18 19 20 19 19 17 16 16 16 18 18 19 18 19 26 25 28 35 34 30 22 19 16 20 32 30 28 27 28
30 26 22 22 21 20 17 17 17 15 16 17 16 15 14 14 13 16 15 18 21 22 22 20 26 38 39 32 24 12 15 31 33 29 26 27 28 29
26 23 21 18 17 15 14 14 14 14 14 14 14 14 14 14 13 14 15 17 18 21 14 28 34 32 25 25 7 30 35 36 31 31 31 30 29 29
24 22 19 16 14 11 11 11 11 12 13 13 14 14 14 13 13 14 15 16 18 21 26 28 31 30 30 34 33 36 34 35 37 33 35 35 28 25
21 20 16 14 12 10 8 7 8 9 11 11 11 10 11 12 12 13 14 17 21 28 26 25 31 33 35 36 35 34 39 39 39 41 34 29 31 28
17 16 15 13 11 9 8 7 7 8 8 7 8 8 9 12 15 18 20 24 29 28 28 27 28 26 26 31 35 37 42 43 37 29 36 31 27 29
16 15 13 11 10 10 9 8 7 7 8 7 8 10 12 15 21 23 27 30 32 30 26 22 23 25 29 28 33 40 38 38 39 34 32 38 40 37
14 14 15 16 15 12 10 10 8 8 10 10 13 15 17 20 23 26 28 30 29 28 29 29 27 26 27 31 36 34 33 36 35 39 40 42 37 35
16 17 16 15 14 13 11 10 10 11 13 15 17 18 19 24 27 29 30 28 29 31 33 32 31 33 34 33 27 28 34 36 39 39 36 36 39 40
19 18 17 17 15 13 13 14 14 15 16 16 19 22 24 27 29 29 28 31 32 34 33 31 32 32 33 34 35 29 33 39 38 39 36 39 40 43
16 15 14 14 12 14 14 14 16 16 18 19 22 24 27 28 29 30 31 33 33 33 33 32 32 29 27 33 41 44 33 33 33 38 42 41 42 38
12 12 11 14 16 17 16 15 17 18 20 23 25 27 28 30 31 32 33 31 31 32 34 35 32 30 31 33 37 42 39 34 29 34 39 40 42 43
12 13 14 15 15 14 13 15 18 21 23 26 28 29 30 31 33 33 32 33 32 33 35 35 33 32 29 30 37 40 41 40 35 32 28 29 35 41
13 16 15 13 12 13 15 18 20 23 26 29 29 30 32 32 32 33 33 33 34 34 34 34 32 30 30 31 32 36 41 40 40 41 38 32 29 32
Wind_Direction
231 230 232 229 231 218 234 237 226 198 204 211 215 222 229 243 256 274 292 303 309 312 312 314 319 328 331 326 324 325 326 320 317 319 318 314 312 309
232 227 228 239 240 248 253 234 220 226 208 216 221 220 220 233 248 267 287 297 298 298 305 310 317 320 320 317 319 322 323 317 314 313 310 310 308 306
224 231 241 243 244 246 244 222 221 227 227 217 208 199 208 229 250 265 277 280 287 292 300 306 309 308 306 310 312 314 312 311 316 312 309 308 305 305
230 235 238 235 237 242 224 223 240 253 234 203 197 201 214 223 234 247 263 271 281 290 296 298 298 297 300 301 303 302 302 308 307 304 310 306 304 303
239 240 223 231 238 229 220 236 244 235 228 220 219 231 230 235 240 249 258 268 278 284 288 293 295 296 296 297 299 299 304 303 300 305 300 296 299 298
227 226 229 227 228 225 227 233 233 234 238 238 238 237 238 243 246 253 259 267 275 281 288 296 295 294 296 296 300 300 298 299 302 297 294 293 294 296
226 224 214 221 223 225 231 223 237 225 239 244 236 241 246 255 264 273 277 282 285 289 287 289 291 293 293 295 297 296 298 299 295 289 290 293 295 294
224 214 210 214 218 220 224 238 235 240 237 240 245 251 258 270 269 275 283 289 295 293 295 296 301 302 303 304 303 302 300 296 294 295 302 296 287 287
213 211 212 216 231 235 231 230 231 238 243 248 253 262 260 262 267 275 283 291 298 301 304 305 308 308 310 309 312 308 301 296 298 299 300 297 294 293
213 215 223 234 234 233 232 230 232 234 244 250 255 250 254 259 269 278 288 295 296 301 311 311 314 314 313 312 314 309 298 289 298 307 303 303 301 297
213 227 234 231 235 241 245 243 239 245 253 253 253 257 258 266 283 289 299 301 308 311 318 310 316 315 314 319 317 305 297 302 312 312 304 303 302 298
218 221 224 229 229 228 231 233 236 243 248 256 264 271 275 277 278 283 290 299 306 318 308 311 312 318 320 317 275 300 305 311 315 313 309 308 305 296
213 214 218 220 220 220 227 239 244 245 245 250 255 260 266 273 280 284 292 298 300 298 305 304 302 304 300 294 295 299 309 311 314 310 308 308 304 299
209 219 221 217 212 209 226 244 251 257 259 263 261 258 265 278 290 301 303 305 308 309 305 297 294 296 297 297 302 304 307 310 310 310 309 304 303 299
211 211 203 200 198 210 223 251 274 263 258 251 262 274 282 300 315 310 311 309 307 305 298 295 294 294 292 296 299 303 308 310 309 307 306 304 306 297
197 192 192 204 213 224 240 269 255 254 257 269 285 289 298 302 306 308 305 305 306 306 307 308 303 300 302 298 300 303 307 302 306 307 304 298 300 297
203 198 204 212 220 234 254 240 245 259 275 281 284 292 295 295 295 298 303 307 305 309 312 313 311 308 305 304 304 304 306 304 302 302 303 304 302 303
200 210 217 227 237 252 238 239 252 271 279 285 288 287 284 291 297 303 307 307 307 312 316 318 318 317 311 307 305 304 300 300 303 307 306 300 296 301
212 222 229 239 237 231 233 244 254 276 279 284 288 286 289 296 303 307 306 308 311 313 314 315 317 318 313 304 308 305 302 303 308 304 297 297 296 301
219 226 222 219 232 242 243 248 259 271 276 281 284 290 297 303 305 305 308 309 310 311 310 311 313 313 305 301 302 303 308 301 299 302 302 299 299 298
210 214 227 234 244 243 244 252 266 271 279 286 294 298 300 301 303 305 307 307 308 308 307 309 311 309 304 302 298 303 309 309 301 296 298 299 302 303
222 217 216 225 235 245 254 260 273 283 290 295 298 299 299 301 303 305 305 304 304 305 305 307 309 308 305 303 301 306 311 316 313 312 297 289 290 291
211 220 225 238 252 263 273 283 286 291 295 297 298 297 297 299 300 300 300 300 301 303 305 306 306 307 305 305 308 306 311 316 323 322 316 316 300 292
Height
1490 1494 1497 1497 1501 1503 1504 1509 1511 1512 1513 1515 1516 1518 1520 1521 1522 1521 1521 1521 1519 1517 1515 1513 1513 1512 1512 1510 1508 1507 1505 1504 1502 1499 1496 1495 1494 1491
1485 1489 1492 1492 1498 1500 1503 1505 1508 1508 1509 1511 1511 1513 1515 1516 1517 1518 1517 1517 1515 1513 1512 1511 1510 1509 1508 1505 1504 1502 1501 1499 1496 1494 1492 1491 1490 1488
1478 1483 1488 1492 1492 1497 1497 1502 1505 1505 1506 1507 1509 1512 1513 1514 1514 1514 1514 1514 1512 1510 1509 1509 1507 1505 1503 1501 1498 1498 1496 1492 1489 1488 1487 1485 1483 1482
1471 1476 1480 1486 1489 1493 1494 1497 1499 1500 1503 1503 1505 1508 1510 1511 1510 1509 1510 1510 1509 1507 1506 1505 1504 1501 1498 1497 1495 1492 1489 1488 1483 1481 1481 1479 1476 1474
1466 1469 1474 1478 1483 1487 1488 1493 1494 1496 1498 1501 1502 1503 1504 1505 1504 1504 1504 1505 1505 1503 1500 1499 1498 1495 1493 1491 1488 1488 1483 1480 1478 1476 1474 1472 1470 1467
1460 1465 1469 1474 1480 1483 1486 1488 1488 1491 1495 1497 1496 1498 1499 1499 1499 1499 1499 1499 1500 1497 1496 1494 1492 1489 1486 1484 1482 1480 1477 1474 1472 1469 1466 1464 1462 1460
1455 1460 1464 1471 1475 1478 1482 1484 1485 1486 1488 1489 1491 1493 1493 1493 1493 1493 1492 1491 1491 1490 1487 1488 1485 1484 1481 1479 1476 1473 1470 1467 1464 1461 1458 1457 1455 1453
1451 1454 1459 1465 1469 1472 1476 1477 1480 1480 1482 1484 1487 1488 1488 1488 1487 1487 1486 1484 1484 1482 1478 1481 1476 1475 1473 1472 1469 1466 1462 1459 1456 1455 1452 1450 1447 1445
1447 1451 1456 1460 1464 1469 1470 1472 1473 1476 1477 1479 1481 1483 1483 1482 1483 1483 1481 1478 1478 1477 1474 1471 1470 1468 1467 1464 1461 1458 1454 1451 1449 1447 1444 1442 1439 1437
1446 1450 1454 1457 1460 1463 1466 1467 1468 1470 1473 1474 1474 1477 1477 1475 1476 1476 1476 1474 1473 1472 1470 1464 1464 1460 1457 1456 1454 1451 1447 1445 1443 1440 1436 1434 1432 1430
1443 1447 1451 1453 1455 1458 1462 1464 1465 1465 1468 1470 1471 1471 1471 1471 1470 1470 1471 1469 1467 1466 1464 1460 1458 1451 1449 1447 1445 1443 1443 1440 1436 1431 1429 1426 1423 1421
1438 1442 1446 1450 1452 1453 1459 1462 1460 1461 1464 1466 1466 1467 1467 1468 1466 1465 1465 1465 1465 1460 1461 1458 1453 1450 1441 1439 1438 1438 1433 1430 1426 1423 1420 1416 1414 1411
1435 1438 1442 1445 1449 1451 1456 1458 1458 1460 1460 1461 1462 1462 1464 1465 1462 1461 1462 1462 1460 1458 1456 1452 1448 1447 1445 1435 1431 1429 1424 1418 1415 1414 1411 1407 1405 1403
1432 1436 1439 1443 1445 1448 1452 1454 1454 1455 1457 1457 1458 1458 1460 1458 1457 1459 1459 1456 1453 1452 1449 1448 1443 1441 1435 1428 1421 1418 1413 1410 1408 1404 1400 1398 1396 1394
1429 1434 1438 1442 1443 1447 1449 1451 1450 1453 1453 1453 1455 1455 1454 1453 1454 1454 1452 1449 1447 1445 1444 1440 1436 1432 1428 1420 1413 1408 1403 1400 1399 1396 1393 1389 1387 1385
1429 1433 1436 1439 1443 1446 1446 1446 1447 1450 1451 1451 1451 1450 1449 1449 1450 1447 1445 1443 1439 1436 1434 1432 1428 1424 1418 1413 1408 1400 1400 1395 1390 1387 1384 1380 1377 1374
1426 1429 1433 1437 1440 1441 1441 1443 1445 1446 1447 1448 1448 1447 1446 1446 1444 1442 1438 1435 1431 1426 1423 1422 1419 1415 1410 1405 1399 1396 1391 1386 1384 1379 1375 1368 1366 1363
1424 1428 1431 1434 1436 1437 1438 1441 1443 1444 1444 1443 1444 1443 1441 1440 1437 1435 1431 1427 1423 1419 1415 1412 1407 1402 1398 1395 1394 1388 1384 1378 1374 1370 1366 1360 1354 1353
1422 1425 1428 1430 1432 1434 1436 1439 1439 1440 1440 1439 1439 1438 1436 1433 1430 1427 1423 1419 1415 1411 1407 1404 1401 1397 1390 1384 1384 1384 1377 1371 1365 1360 1358 1353 1345 1339
1419 1422 1424 1427 1430 1431 1433 1435 1435 1435 1435 1435 1433 1431 1429 1425 1422 1419 1416 1412 1407 1402 1399 1397 1395 1392 1388 1381 1372 1368 1372 1364 1360 1351 1345 1341 1335 1330
1416 1419 1421 1423 1426 1427 1429 1430 1431 1431 1430 1428 1426 1424 1421 1418 1414 1411 1408 1404 1400 1396 1392 1389 1387 1385 1380 1374 1365 1358 1357 1357 1353 1346 1338 1332 1324 1318
1413 1416 1418 1420 1422 1423 1425 1426 1426 1425 1423 1421 1419 1416 1413 1410 1406 1402 1399 1395 1392 1389 1384 1381 1379 1375 1371 1367 1359 1351 1344 1341 1340 1334 1331 1328 1321 1309
1410 1414 1415 1417 1418 1419 1420 1420 1419 1418 1416 1413 1411 1408 1405 1402 1398 1395 1391 1388 1384 1380 1377 1372 1370 1367 1363 1359 1352 1345 1339 1332 1325 1317 1313 1314 1309 1304